Regional Weather Roundup
Issued by NWS Goodland, KS

Home | Current Version | Previous Version | Graphics & Text | Print | Product List | Glossary On
Versions: 1 2 3 4 5 6 7 8 9 10 11 12 13 14 15 16 17 18 19 20 21 22 23 24 25 26 27 28 29 30 31 32 33 34 35 36 37 38 39 40 41 42 43 44 45 46 47 48 49 50
000
ASUS43 KGLD 261608
RWRGLD

GOODLAND FORECAST AREA HOURLY WEATHER ROUNDUP
NATIONAL WEATHER SERVICE GOODLAND KS
1000 AM MDT WED JUL 26 2017

...OFFICIAL OBSERVATIONS...

CITY           SKY/WX    TMP DP  RH WIND       PRES   REMARKS
GOODLAND KS    CLOUDY    73  67  81 NW22G30   30.07R
HILL CITY KS   CLOUDY    83  70  64 SE5       29.92F
IMPERIAL NEB   CLOUDY    72  64  76 N15       30.08R
MCCOOK NEB     CLOUDY    74  69  85 N13       29.99R
AKRON CO       CLOUDY    72  60  66 N15       30.20S
BURLINGTON CO  MOSUNNY   77  65  66 N17G26    30.13S
LIMON CO       MOSUNNY   72  62  71 N13       30.24S
$$

...UNOFFICIAL OBSERVATIONS...

CITY           SKY/WX    TMP DP  RH WIND       PRES   REMARKS
LENORA KS        N/A     82  32  16 MISG        N/A
NORTON KS      SUNNY     81  64  57 SE5       29.93
SHARON SPRINGS   N/A     76  69  78 NW14G21     N/A
TRENTON NEB      N/A     72  32  23 N9          N/A
KIT CARSON CO    N/A     79  64  59 MISG        N/A
YUMA CO        CLOUDY    70  55  60 N13       30.15S
$$



USA.gov is the U.S. government's official web portal to all federal, state and local government web resources and services.